Meteo Giornale » Osservazioni meteo Francia » Nizza

ore: 01:30 - Osservazioni Meteo Nizza
Lat. 43° 39' N Lon. 7° 12' E Alt. 4 metri s.l.m.

sereno Europe/Paris

19 °C

Sereno

Temp. 24 Ore

17 °C

24 °C

Nord/NOvest

18.5 Km/h

Dew point 13 °C

Umidità 68 %

Visibilità  10 Km

Il sole sorge alle ore 07:17

Il sole tramonta alle ore 19:30

Data e Ora Cielo e Fenomeni T °C DP °C Um. % Pres. hPa Vis. km Vento km/h
Oggi h: 01:30 sereno Sereno 19 13 68 1023 10 N/NO 18.5
Oggi h: 01:00 sereno Sereno 19 14 72 1023 10 N/NO 18.5
Oggi h: 00:30 sereno Sereno 20 13 64 1023 10 N/NO 18.5
Oggi h: 00:00 sereno Sereno 20 14 68 1023 10 N 11.1
Ieri h: 23:30 sereno Sereno 20 14 68 1022 10 N/NO 14.8
Ieri h: 23:00 sereno Sereno 20 14 68 1022 10 N/NO 9.3
Ieri h: 22:30 sereno Sereno 21 14 64 1022 10 N/NO 9.3
Ieri h: 22:00 sereno Sereno 21 15 68 1022 10 N/NO 11.1
Ieri h: 21:00 sereno Sereno 22 15 64 1022 10 NO 7.4
Ieri h: 20:30 sereno Sereno 22 16 68 1022 10 O 7.4
Ieri h: 19:49 poco_nuvoloso Poco Nuvoloso 23 16 64 1022 10 N 5.5
Ieri h: 19:00 poco_nuvoloso Poco Nuvoloso 24 15 57 1022 10 E/SE 13
Ieri h: 16:30 poco_nuvoloso Poco Nuvoloso 24 16 60 1021 10 E 24
Ieri h: 16:00 poco_nuvoloso Poco Nuvoloso 24 15 57 1021 10 E 14.8
Ieri h: 15:30 poco_nuvoloso Poco Nuvoloso 24 16 60 1021 10 E 13
Ieri h: 15:00 poco_nuvoloso Poco Nuvoloso 24 16 60 1021 10 S 7.4
Ieri h: 14:30 nuvoloso Nuvoloso 24 17 64 1022 10 S/SO 7.4
Ieri h: 14:00 nuvoloso Nuvoloso 24 16 60 1022 10 S 7.4
Ieri h: 13:30 nuvoloso Nuvoloso 24 15 57 1022 10 S 11.1
Ieri h: 12:30 nuvoloso Nuvoloso 24 15 57 1021 10 S 13
Ieri h: 12:00 sereno Sereno 24 13 50 1021 10 S 11.1
Ieri h: 11:30 sereno Sereno 24 12 47 1021 10 NO 9.3
Ieri h: 11:00 sereno Sereno 23 12 49 1020 10 NO 16.7
Ieri h: 10:30 sereno Sereno 22 11 49 1020 10 N 13
Ieri h: 10:00 sereno Sereno 20 12 59 1020 10 N 14.8
Ieri h: 09:30 sereno Sereno 20 11 56 1020 10 NO 9.3
Ieri h: 09:00 sereno Sereno 19 11 59 1020 10 N/NO 11.1
Ieri h: 08:30 sereno Sereno 18 11 63 1020 10 N/NO 14.8
Ieri h: 08:00 sereno Sereno 17 11 67 1019 10 N/NO 16.7
Ieri h: 07:30 sereno Sereno 17 11 67 1019 10 N 13
Ieri h: 07:00 sereno Sereno 17 11 67 1019 10 N/NO 13
Ieri h: 06:30 sereno Sereno 17 11 67 1019 10 N/NO 16.7
Ieri h: 06:00 sereno Sereno 17 12 72 1018 10 N/NO 14.8
Ieri h: 05:30 sereno Sereno 17 12 72 1018 10 N/NO 11.1
Ieri h: 05:00 sereno Sereno 17 12 72 1018 10 N/NO 11.1
Ieri h: 04:30 sereno Sereno 17 12 72 1018 10 N/NO 16.7
Ieri h: 04:00 sereno Sereno 17 12 72 1018 10 N/NO 11.1
Ieri h: 03:30 sereno Sereno 17 12 72 1018 10 N/NO 16.7